When you browse on this site, cookies collect data to enhance your experience and personalize the content and advertising you see.
Visit our Privacy Policy to learn more. By continuing to use the site, you agree to this use of cookies and data.
  • En España
  • Lista de países
  • Para 7 días
  • Temperatura del agua
  • El tiempo en el mapa
  • Informadores
  • user-avatar
    Iniciar sesión

    Tiempo cada hora Rancagua

    Hoy, 27 Enero, Lunes

    Tiempo Temperatura Precipitaciones Viento Presión Humedad
    00:00 +20°C° 0 mm 0 mps 718 mmHg 61%
    01:00 +19°C° 0 mm 0 mps 718 mmHg 61%
    02:00 +19°C° 0 mm 0 mps 718 mmHg 61%
    03:00 +19°C° 0 mm 0 mps 717 mmHg 61%
    04:00 +18°C° 0 mm 0 mps 717 mmHg 61%
    05:00 +23°C° 0 mm 1 mps 718 mmHg 53%
    06:00 +25°C° 0 mm 1 mps 718 mmHg 46%
    07:00 +28°C° 0 mm 1 mps 719 mmHg 37%
    08:00 +30°C° 0 mm 1 mps 719 mmHg 32%
    09:00 +32°C° 0 mm 2 mps 719 mmHg 27%
    10:00 +35°C° 0 mm 3 mps 718 mmHg 22%
    11:00 +36°C° 0 mm 3 mps 718 mmHg 20%
    12:00 +37°C° 0 mm 3 mps 718 mmHg 17%
    13:00 +38°C° 0 mm 4 mps 718 mmHg 15%
    14:00 +38°C° 0 mm 4 mps 718 mmHg 14%
    15:00 +38°C° 0 mm 4 mps 718 mmHg 14%
    16:00 +39°C° 0 mm 5 mps 718 mmHg 14%
    17:00 +34°C° 0 mm 4 mps 717 mmHg 18%
    18:00 +30°C° 0 mm 3 mps 717 mmHg 23%
    19:00 +26°C° 0 mm 1 mps 717 mmHg 28%
    20:00 +24°C° 0 mm 1 mps 717 mmHg 31%
    21:00 +23°C° 0 mm 1 mps 717 mmHg 35%
    22:00 +19°C° 0 mm 0 mps 717 mmHg 39%
    23:00 +19°C° 0 mm 0 mps 716 mmHg 40%

    Mañana, 28 Enero, Martes

    Tiempo Temperatura Precipitaciones Viento Presión Humedad
    00:00 +18°C° 0 mm 0 mps 716 mmHg 41%
    01:00 +18°C° 0 mm 0 mps 716 mmHg 42%
    02:00 +18°C° 0 mm 0 mps 716 mmHg 43%
    03:00 +17°C° 0 mm 0 mps 716 mmHg 44%
    04:00 +17°C° 0 mm 0 mps 715 mmHg 44%
    05:00 +19°C° 0 mm 0 mps 716 mmHg 40%
    06:00 +23°C° 0 mm 1 mps 716 mmHg 37%
    07:00 +25°C° 0 mm 1 mps 716 mmHg 33%
    08:00 +27°C° 0 mm 1 mps 717 mmHg 30%
    09:00 +29°C° 0 mm 2 mps 717 mmHg 28%
    10:00 +31°C° 0 mm 2 mps 717 mmHg 26%
    11:00 +33°C° 0 mm 3 mps 717 mmHg 24%
    12:00 +35°C° 0 mm 3 mps 717 mmHg 22%
    13:00 +36°C° 0 mm 3 mps 717 mmHg 20%
    14:00 +35°C° 0 mm 4 mps 717 mmHg 24%
    15:00 +34°C° 0 mm 5 mps 716 mmHg 28%
    16:00 +33°C° 0 mm 6 mps 716 mmHg 32%
    17:00 +29°C° 0.1 mm 4 mps 716 mmHg 41%
    18:00 +27°C° 0.1 mm 3 mps 716 mmHg 49%
    19:00 +24°C° 0.1 mm 2 mps 716 mmHg 58%
    20:00 +22°C° 0 mm 1 mps 716 mmHg 66%
    21:00 +21°C° 0 mm 1 mps 716 mmHg 74%
    22:00 +17°C° 0 mm 0 mps 716 mmHg 82%
    23:00 +16°C° 0 mm 0 mps 716 mmHg 83%

    Pasado mañana, 29 Enero, Miércoles

    Tiempo Temperatura Precipitaciones Viento Presión Humedad
    00:00 +16°C° 0 mm 0 mps 716 mmHg 85%
    01:00 +16°C° 0 mm 0 mps 716 mmHg 86%
    02:00 +15°C° 0 mm 0 mps 716 mmHg 86%
    03:00 +15°C° 0 mm 0 mps 716 mmHg 86%
    04:00 +15°C° 0 mm 0 mps 716 mmHg 86%
    05:00 +17°C° 0 mm 0 mps 716 mmHg 78%
    06:00 +19°C° 0 mm 0 mps 717 mmHg 71%
    07:00 +22°C° 0 mm 1 mps 718 mmHg 64%
    08:00 +25°C° 0 mm 1 mps 718 mmHg 55%
    09:00 +27°C° 0 mm 2 mps 718 mmHg 47%
    10:00 +29°C° 0 mm 2 mps 718 mmHg 39%
    11:00 +31°C° 0 mm 3 mps 718 mmHg 35%
    12:00 +33°C° 0 mm 3 mps 718 mmHg 30%
    13:00 +34°C° 0 mm 3 mps 718 mmHg 26%
    14:00 +34°C° 0 mm 4 mps 718 mmHg 27%
    15:00 +33°C° 0 mm 4 mps 718 mmHg 28%
    16:00 +33°C° 0 mm 4 mps 718 mmHg 29%
    17:00 +29°C° 0.1 mm 3 mps 718 mmHg 37%
    18:00 +26°C° 0.1 mm 2 mps 718 mmHg 44%
    19:00 +23°C° 0.1 mm 1 mps 718 mmHg 51%
    20:00 +22°C° 0 mm 1 mps 718 mmHg 56%
    21:00 +20°C° 0 mm 1 mps 718 mmHg 60%
    22:00 +17°C° 0 mm 0 mps 718 mmHg 65%
    23:00 +16°C° 0 mm 0 mps 718 mmHg 66%

    30 Enero, Jueves

    Tiempo Temperatura Precipitaciones Viento Presión Humedad
    00:00 +16°C° 0 mm 0 mps 718 mmHg 68%
    01:00 +16°C° 0 mm 0 mps 717 mmHg 70%
    02:00 +15°C° 0 mm 0 mps 717 mmHg 70%
    03:00 +15°C° 0 mm 0 mps 717 mmHg 70%
    04:00 +15°C° 0 mm 0 mps 717 mmHg 69%
    05:00 +18°C° 0 mm 0 mps 717 mmHg 60%
    06:00 +20°C° 0 mm 0 mps 717 mmHg 51%
    07:00 +25°C° 0 mm 1 mps 718 mmHg 42%
    08:00 +27°C° 0 mm 1 mps 718 mmHg 36%
    09:00 +29°C° 0 mm 2 mps 718 mmHg 30%
    10:00 +33°C° 0 mm 3 mps 718 mmHg 25%
    11:00 +34°C° 0 mm 3 mps 718 mmHg 22%
    12:00 +36°C° 0 mm 3 mps 718 mmHg 19%
    13:00 +37°C° 0 mm 3 mps 718 mmHg 16%
    14:00 +37°C° 0 mm 4 mps 718 mmHg 16%
    15:00 +37°C° 0 mm 4 mps 718 mmHg 17%
    16:00 +36°C° 0 mm 5 mps 718 mmHg 17%
    17:00 +33°C° 0 mm 4 mps 718 mmHg 24%
    18:00 +28°C° 0 mm 2 mps 717 mmHg 32%
    19:00 +24°C° 0 mm 1 mps 717 mmHg 39%
    20:00 +22°C° 0 mm 1 mps 717 mmHg 44%
    21:00 +21°C° 0 mm 1 mps 718 mmHg 48%
    22:00 +17°C° 0 mm 0 mps 718 mmHg 52%
    23:00 +17°C° 0 mm 0 mps 717 mmHg 53%

    31 Enero, Viernes

    Tiempo Temperatura Precipitaciones Viento Presión Humedad
    00:00 +16°C° 0 mm 0 mps 717 mmHg 54%
    01:00 +16°C° 0 mm 0 mps 717 mmHg 55%
    02:00 +16°C° 0 mm 0 mps 717 mmHg 55%
    03:00 +16°C° 0 mm 0 mps 717 mmHg 55%
    04:00 +16°C° 0 mm 0 mps 717 mmHg 54%
    05:00 +18°C° 0 mm 0 mps 717 mmHg 47%
    06:00 +21°C° 0 mm 0 mps 718 mmHg 39%
    07:00 +23°C° 0 mm 0 mps 718 mmHg 31%
    08:00 +28°C° 0 mm 1 mps 718 mmHg 28%
    09:00 +30°C° 0 mm 2 mps 718 mmHg 24%
    10:00 +34°C° 0 mm 2 mps 719 mmHg 20%
    11:00 +35°C° 0 mm 2 mps 718 mmHg 19%
    12:00 +36°C° 0 mm 3 mps 718 mmHg 17%
    13:00 +37°C° 0 mm 3 mps 718 mmHg 16%
    14:00 +36°C° 0 mm 3 mps 718 mmHg 17%
    15:00 +36°C° 0 mm 4 mps 718 mmHg 17%
    16:00 +35°C° 0 mm 4 mps 718 mmHg 18%
    17:00 +31°C° 0 mm 3 mps 717 mmHg 24%
    18:00 +27°C° 0 mm 2 mps 717 mmHg 30%
    19:00 +24°C° 0 mm 1 mps 717 mmHg 36%
    20:00 +22°C° 0 mm 1 mps 717 mmHg 41%
    21:00 +19°C° 0 mm 0 mps 717 mmHg 46%
    22:00 +17°C° 0 mm 0 mps 717 mmHg 50%
    23:00 +16°C° 0 mm 0 mps 717 mmHg 52%

    1 Febrero, Sábado

    Tiempo Temperatura Precipitaciones Viento Presión Humedad
    00:00 +16°C° 0 mm 0 mps 716 mmHg 55%
    01:00 +15°C° 0 mm 0 mps 716 mmHg 57%
    02:00 +15°C° 0 mm 0 mps 716 mmHg 57%
    03:00 +15°C° 0 mm 0 mps 715 mmHg 58%
    04:00 +14°C° 0 mm 0 mps 715 mmHg 59%
    05:00 +17°C° 0 mm 0 mps 716 mmHg 51%
    06:00 +21°C° 0 mm 1 mps 716 mmHg 44%
    07:00 +24°C° 0 mm 1 mps 716 mmHg 36%
    08:00 +26°C° 0 mm 1 mps 717 mmHg 32%
    09:00 +28°C° 0 mm 2 mps 717 mmHg 28%
    10:00 +30°C° 0 mm 3 mps 717 mmHg 25%
    11:00 +31°C° 0 mm 3 mps 717 mmHg 23%
    12:00 +33°C° 0 mm 3 mps 717 mmHg 22%
    13:00 +34°C° 0 mm 3 mps 717 mmHg 20%
    14:00 +34°C° 0 mm 4 mps 717 mmHg 21%
    15:00 +34°C° 0 mm 4 mps 717 mmHg 21%
    16:00 +33°C° 0 mm 4 mps 717 mmHg 22%
    17:00 +29°C° 0 mm 3 mps 717 mmHg 31%
    18:00 +25°C° 0 mm 3 mps 717 mmHg 41%
    19:00 +21°C° 0 mm 2 mps 716 mmHg 51%
    20:00 +20°C° 0 mm 1 mps 717 mmHg 61%
    21:00 +18°C° 0 mm 1 mps 717 mmHg 70%
    22:00 +15°C° 0 mm 0 mps 717 mmHg 80%
    23:00 +14°C° 0 mm 0 mps 717 mmHg 80%
    Mostrar más